EDT,Max TemperatureF,Mean TemperatureF,Min TemperatureF,Max Dew PointF,MeanDew PointF,Min DewpointF,Max Humidity, Mean Humidity, Min Humidity, Max Sea Level PressureIn, Mean Sea Level PressureIn, Min Sea Level PressureIn, Max VisibilityMiles, Mean VisibilityMiles, Min VisibilityMiles, Max Wind SpeedMPH, Mean Wind SpeedMPH, Max Gust SpeedMPH,PrecipitationIn, CloudCover, Events, WindDirDegrees
2011-9-1,75,68,60,61,57,51,97,77,57,30.25,30.21,30.17,10,10,8,13,5,16,0.00,3,,79
2011-9-2,72,64,56,57,55,52,100,77,53,30.19,30.14,30.05,10,8,1,10,5,13,0.00,4,,76
2011-9-3,81,70,59,70,63,55,97,80,62,30.03,29.95,29.90,10,9,6,18,11,23,0.00,0,,241
2011-9-4,80,72,64,72,68,64,100,87,74,29.94,29.90,29.85,10,6,0,16,11,22,0.00,5,Fog,226
2011-9-5,81,73,64,67,65,63,100,81,62,29.87,29.85,29.81,10,10,7,23,11,30,T,3,,213
2011-9-6,68,62,56,67,58,55,100,95,90,30.22,30.05,29.86,10,6,0,22,8,31,1.02,8,Fog-Rain,60
2011-9-7,60,58,55,61,56,55,100,97,93,30.25,30.20,30.14,10,3,0,16,10,23,1.03,8,Fog-Rain,61
2011-9-8,64,60,55,62,58,55,100,97,93,30.15,30.09,29.97,10,2,0,13,6,21,2.83,8,Fog-Rain,40
2011-9-9,77,69,60,61,58,48,100,72,43,29.96,29.86,29.79,10,7,0,15,8,21,0.00,2,Fog,346
2011-9-10,77,67,56,56,52,48,80,62,43,30.10,29.96,29.87,10,10,10,10,6,15,0.00,0,,19
2011-9-11,68,61,54,57,51,47,86,72,58,30.19,30.11,30.04,10,10,10,13,6,18,0.00,4,,179
2011-9-12,76,66,56,62,59,51,100,79,58,30.03,30.00,29.96,10,10,8,16,9,23,0.00,3,,253
2011-9-13,79,70,61,63,62,60,100,77,54,29.98,29.92,29.86,10,8,1,21,11,25,0.00,0,,239
2011-9-14,79,72,64,67,64,62,100,82,64,29.97,29.92,29.87,10,8,4,17,9,24,0.00,1,,232
2011-9-15,74,60,46,67,62,42,100,87,73,30.01,29.92,29.84,10,5,0,25,11,33,0.31,7,Fog-Rain-Thunderstorm,244
2011-9-16,59,51,42,41,37,32,89,63,36,30.36,30.21,30.01,10,10,10,18,10,24,0.00,0,,299
2011-9-17,60,52,44,45,38,34,77,61,44,30.50,30.44,30.37,10,10,10,12,5,15,0.00,0,,32
2011-9-18,63,56,48,46,43,36,80,61,42,30.51,30.45,30.39,10,10,10,14,6,20,0.00,2,,46
2011-9-19,63,55,46,49,46,42,93,74,55,30.38,30.27,30.17,10,10,10,10,7,15,0.00,1,,61
2011-9-20,62,56,50,59,55,49,100,92,84,30.18,30.12,30.09,10,8,2,17,9,24,0.07,6,Rain,235
2011-9-21,74,65,56,61,58,55,100,79,57,30.28,30.23,30.19,10,6,0,12,7,17,0.02,4,Fog-Rain,232
2011-9-22,74,68,62,70,66,62,100,92,84,30.22,30.15,30.09,10,6,0,12,5,18,0.24,7,Fog-Rain,174
2011-9-23,72,70,67,70,66,64,100,92,84,30.18,30.12,30.05,10,5,0,16,6,21,0.85,7,Fog-Rain,147
2011-9-24,76,72,67,69,68,66,100,90,79,30.11,30.03,29.97,10,7,0,14,7,20,0.27,6,Fog-Rain,199
2011-9-25,76,71,65,68,65,63,93,83,73,30.13,30.08,30.04,10,10,9,13,4,18,0.00,2,,334
2011-9-26,80,71,61,66,62,57,100,76,51,30.05,30.01,29.97,10,10,10,8,4,12,0.00,0,,281
2011-9-27,78,71,64,66,64,60,100,81,62,30.08,30.03,29.96,10,8,0,10,5,15,0.00,5,Fog,70
2011-9-28,73,67,60,64,60,53,100,77,53,30.12,30.05,29.98,10,7,2,17,7,22,0.16,7,Rain,82
2011-9-29,72,65,57,67,62,56,100,92,84,29.98,29.79,29.61,10,4,0,18,8,26,0.46,7,Fog-Rain,101
2011-9-30,73,66,59,63,57,52,100,77,53,29.74,29.70,29.66,10,9,4,20,11,25,0.00,4,,222